Overview Statistics Trail Chart Weather Telemetry Raw packets
 

This is the latest recevied weather packets stored in our database for station/object KF7U. If no packets are shown the sender has not sent any weather packets the latest 10 day(s).

<< 63 64 65 66 67 68 69 >>
Time Temp. Humidity Pressure Rain* Wind** Luminosity Snow
1788225788 30° C 52% 1013.2 hPa 0 mm - - -
1788225489 30° C 52% 1013.2 hPa 0 mm - - -
1788225189 30° C 50% 1013.2 hPa 0 mm - - -
1788224888 30.56° C 49% 1013.2 hPa 0 mm - - -
1788224587 30.56° C 50% 1013.2 hPa 0 mm - - -
1788224287 30° C 51% 1013.2 hPa 0 mm - - -
1788223988 30° C 50% 1013.5 hPa 0 mm - - -
1788223390 30° C 51% 1013.5 hPa 0 mm - - -
1788223088 30° C 49% 1013.5 hPa 0 mm - - -
1788222789 30° C 50% 1013.5 hPa 0 mm - - -
1788222487 30° C 49% 1013.5 hPa 0 mm - - -
1788222187 30° C 50% 1013.5 hPa 0 mm - - -
1788221888 30° C 50% 1013.9 hPa 0 mm - - -
1788221589 30° C 49% 1013.9 hPa 0 mm - - -
1788221307 30.56° C 51% 1013.5 hPa 0 mm - - -
1788220989 30.56° C 50% 1013.9 hPa 0 mm - - -
1788220687 30.56° C 50% 1013.9 hPa 0 mm - - -
1788220387 31.67° C 48% 1013.5 hPa 0 mm - - -
1788220088 32.22° C 45% 1013.5 hPa 0 mm - - -
1788219787 32.22° C 42% 1013.5 hPa 0 mm - - -
1788219487 32.22° C 42% 1013.5 hPa 0 mm - - -
1788219188 31.67° C 43% 1013.5 hPa 0 mm - - -
1788218888 31.67° C 42% 1013.5 hPa 0 mm - - -
1788218588 31.67° C 41% 1013.9 hPa 0 mm - - -
1788218288 31.67° C 41% 1013.9 hPa 0 mm - - -

* Rain latest hour (hover to see other rain measurements)
** Current wind speed in m/s (hover to see current wind gust speed)